Токаревка

Kazakhstan     50˚07′58″N   73˚12′00″E
temp.,
°C
wind,
m/s
gust,
m/s
humid.,
%
clouds,
%
prec.,
mm/h
press.,
hPa
HPBL,
m
3 december, thu
thu300:00−18˚ene55850 0.0 103975
03:00−18˚ene55810 0.0 103868
06:00−18˚ene457818 0.0 103846
09:00−18˚ene447515 0.0 103636
12:00−15˚ene357838 0.0 1035104
15:00−13˚ene3580100 0.0 103486
18:00−14˚ene4478100 0.0 103449
21:00−15˚ene448090 0.0 103455
4 december, fri
fri400:00−16˚ene347974 0.0 103426
03:00−17˚ne348157 0.0 103329
06:00−17˚ne348478 0.0 103359
09:00−18˚ne348593 0.0 103352
12:00−16˚ne348790 0.0 1034109
15:00−16˚ne348994 0.0 1034129
18:00−19˚ne459293 0.1 103584
21:00−22˚ne459763 0.0 103676
5 december, sat
sat500:00−22˚ne479856 0.0 1036110
03:00−23˚ne579743 0.0 1036101
06:00−23˚ne589726 0.0 1036122
09:00−24˚ne579858 0.0 1037124
12:00−20˚ne579655 0.0 1037188
15:00−19˚ne589677 0.0 1037202
18:00−22˚ne589858 0.0 1038112
21:00−23˚ne459954 0.0 103973
6 december, sun
sun600:00−22˚ene459835 0.0 103968
03:00−22˚ne449818 0.0 104047
06:00−21˚ene349826 0.0 104133
09:00−21˚e33970 0.0 104221
12:00−16˚se22900 0.0 104253
15:00−14˚se22870 0.0 104120
18:00−18˚e12870 0.0 104120
21:00−17˚ese23850 0.0 104020
7 december, mon
mon700:00−16˚ese22850 0.0 103920
03:00−15˚ene338510 0.0 103722
06:00−15˚ne448921 0.0 103644
09:00−16˚ne459012 0.0 103557
12:00−13˚ene468814 0.0 1034135
15:00−12˚ene348856 0.0 103270
18:00−14˚ne338428 0.0 103222
21:00−15˚ne33810 0.0 103222